Showing default

INMARSAT 6-F1, 50319

Orbit data source: Space-Track

INMARSAT 6-F1, 50319 is a payload satellite owned by INMARSAT-Ltd (UK) in GEO that was launched on Wed, 22 Dec 2021 UTC via an H-IIA 204 launch vehicle from the Tanegashima Space Center (TNSTA). Payload-class satellites include a variety of spacecraft equipped with specific instruments for various scientific and technological missions. These include communications satellites like Starlink; space stations such as the ISS; scientific satellites like the Hubble; Earth observation satellites from companies like Planet Labs, Umbra, and HawkEye 360; GPS; miniature CubeSats for education and research; and military/defense satellites.

Not visible in the next 10 days
Identifier
50319, 2021-128A
Orbit
GEO
Country
Flag of IMIM
Related business
Manufacturer
Airbus (UK)
Mission
Operational Commercial Communications
Bus & Motor
EUROSTAR 3000EOR, SPT140D
Mass
5,470 kg wet, 4,000 kg dry
Launch date (UTC)
2021-12-22 (4 years ago)
Launch vehicle
H-IIA 204
Launch site
Tanegashima Space Center (TNSTA)
Object type
Payload
Rocket body
Debris
Shape & HBR
Box + 1 Dish + 2 Pan, 23.5 m
Radar Cross Section
55.453 m², Large (>1 m²)

Expand to show TLE details & history
Last TLE update: 2 days ago

TLE from 2 days ago
0 INMARSAT 6-F1
1 50319U 21128A   25346.80443848 -.00000159  00000-0  00000-0 0  9997
2 50319   0.0196 325.7704 0000437  46.0791  83.2499  1.00269316 14395
Epoch: 2025-12-12T19:18Z
TLE epoch observation values (Epoch: 2025-12-12T19:18:23.484Z)
Latitude
0.0309°
Longitude
83.75918°
Altitude
35,786.552 km
Speed
3.075 km/s
True Right ascension
06h 20m 23s
True Declination
0° 01' 51"
Sunlit
Object was in daylight at epoch
Visualization orbit readout
Latitude
Unknown
Longitude
Unknown
Altitude
Unknown
Speed
Unknown
Apparent Right ascension
Unknown
Apparent Declination
Unknown
Sunlit
N/A
Visualization observer readout
Local Sidereal Time
11:02:35
Azimuth
Unknown
Elevation
Unknown
Doppler factor
Unknown
Orbital elements
Apogee altitude
35,790.2 km
Perigee altitude
35,786.515 km
Semi-major axis
42,166.494 km
Eccentricity
0.00004
Inclination
0.0196°
RAAN
325.7704°
Arg. of periapsis
46.0791°
True anomaly
83.25487°
Mean anomaly
83.2499°
Eccentric anomaly
83.25239°
Mean motion
0.25066 °/min
Orbital period
1,436.19 mins
BSTAR
0
Loading maneuver chart data...
Computing Atmospheric mass density...
Loading historical data...
Loading historical data...
Loading historical data...
Loading historical data...
Loading historical data...
Loading historical data...
Loading historical data...
Other satellites on launch #128 in the year 2021 (2021-12-22 UTC)

Documentation

Showing up to 5 results
|